Year,Month,Day,Hour,Minute,Value (Times are PST for temperature in C)
2015,06,15,00,01,16.70
2015,06,15,00,02,16.70
2015,06,15,00,03,16.60
2015,06,15,00,04,16.60
2015,06,15,00,05,16.60
2015,06,15,00,06,16.50
2015,06,15,00,07,16.40
2015,06,15,00,08,16.40
2015,06,15,00,09,16.40
2015,06,15,00,10,16.40
2015,06,15,00,11,16.30
2015,06,15,00,12,16.30
2015,06,15,00,13,16.30
2015,06,15,00,14,16.30
2015,06,15,00,15,16.20
2015,06,15,00,16,16.20
2015,06,15,00,17,16.20
2015,06,15,00,18,16.20
2015,06,15,00,19,16.20
2015,06,15,00,20,16.10
2015,06,15,00,21,16.10
2015,06,15,00,22,16.10
2015,06,15,00,23,16.10
2015,06,15,00,24,16.10
2015,06,15,00,25,16.00
2015,06,15,00,26,15.90
2015,06,15,00,28,15.90
2015,06,15,00,29,15.90
2015,06,15,00,30,15.80
2015,06,15,00,31,15.80
2015,06,15,00,32,15.80
2015,06,15,00,33,15.80
2015,06,15,00,34,15.80
2015,06,15,00,35,15.80
2015,06,15,00,38,15.70
2015,06,15,00,39,15.70
2015,06,15,00,40,15.70
2015,06,15,00,41,15.70
2015,06,15,00,42,15.60
2015,06,15,00,44,15.60
2015,06,15,00,45,15.60
2015,06,15,00,46,15.50
2015,06,15,00,47,15.50
2015,06,15,00,48,15.40
2015,06,15,00,49,15.40
2015,06,15,00,50,15.40
2015,06,15,00,51,15.40
2015,06,15,00,52,15.30
2015,06,15,00,53,15.30
2015,06,15,00,56,15.30
2015,06,15,00,57,15.20
2015,06,15,00,58,15.20
2015,06,15,01,00,15.20
2015,06,15,01,01,15.10
2015,06,15,01,03,15.10
2015,06,15,01,04,15.10
2015,06,15,01,07,14.90
2015,06,15,01,08,14.90
2015,06,15,01,09,14.90
2015,06,15,01,10,14.90
2015,06,15,01,11,14.80
2015,06,15,01,12,14.80
2015,06,15,01,14,14.80
2015,06,15,01,15,14.70
2015,06,15,01,16,14.70
2015,06,15,01,17,14.70
2015,06,15,01,18,14.70
2015,06,15,01,19,14.60
2015,06,15,01,20,14.60
2015,06,15,01,21,14.60
2015,06,15,01,22,14.60
2015,06,15,01,25,14.50
2015,06,15,01,26,14.40
2015,06,15,01,27,14.40
2015,06,15,01,28,14.40
2015,06,15,01,29,14.40
2015,06,15,01,30,14.30
2015,06,15,01,31,14.30
2015,06,15,01,34,14.30
2015,06,15,01,35,14.20
2015,06,15,01,36,14.20
2015,06,15,01,37,14.20
2015,06,15,01,38,14.20
2015,06,15,01,39,14.10
2015,06,15,01,40,14.10
2015,06,15,01,41,14.10
2015,06,15,01,43,14.10
2015,06,15,01,44,14.00
2015,06,15,01,45,14.00
2015,06,15,01,46,14.00
2015,06,15,01,47,13.90
2015,06,15,01,48,13.90
2015,06,15,01,49,13.90
2015,06,15,01,50,13.90
2015,06,15,01,53,13.80
2015,06,15,01,54,13.80
2015,06,15,01,55,13.80
2015,06,15,01,56,13.80
2015,06,15,01,57,13.80
2015,06,15,01,58,13.80
2015,06,15,02,00,13.70
2015,06,15,02,02,13.70
2015,06,15,02,03,13.70
2015,06,15,02,04,13.70
2015,06,15,02,05,13.60
2015,06,15,02,06,13.60
2015,06,15,02,07,13.60
2015,06,15,02,08,13.60
2015,06,15,02,09,13.60
2015,06,15,02,10,13.60
2015,06,15,02,11,13.50
2015,06,15,02,12,13.50
2015,06,15,02,13,13.50
2015,06,15,02,14,13.50
2015,06,15,02,15,13.40
2015,06,15,02,16,13.40
2015,06,15,02,17,13.40
2015,06,15,02,18,13.40
2015,06,15,02,20,13.40
2015,06,15,02,21,13.30
2015,06,15,02,22,13.30
2015,06,15,02,23,13.30
2015,06,15,02,24,13.30
2015,06,15,02,25,13.30
2015,06,15,02,27,13.20
2015,06,15,02,28,13.20
2015,06,15,02,29,13.20
2015,06,15,02,30,13.20
2015,06,15,02,31,13.20
2015,06,15,02,32,13.10
2015,06,15,02,33,13.10
2015,06,15,02,34,13.10
2015,06,15,02,35,13.10
2015,06,15,02,36,13.10
2015,06,15,02,37,13.10
2015,06,15,02,38,13.10
2015,06,15,02,39,13.00
2015,06,15,02,40,13.00
2015,06,15,02,41,13.00
2015,06,15,02,43,13.00
2015,06,15,02,44,12.90
2015,06,15,02,45,12.90
2015,06,15,02,46,12.90
2015,06,15,02,47,12.90
2015,06,15,02,48,12.90
2015,06,15,02,49,12.90
2015,06,15,02,50,12.90
2015,06,15,02,51,12.90
2015,06,15,02,52,12.90
2015,06,15,02,53,12.80
2015,06,15,02,54,12.80
2015,06,15,02,55,12.80
2015,06,15,02,56,12.80
2015,06,15,02,57,12.80
2015,06,15,02,58,12.80
2015,06,15,02,59,12.80
2015,06,15,03,00,12.80
2015,06,15,03,01,12.80
2015,06,15,03,02,12.70
2015,06,15,03,03,12.70
2015,06,15,03,04,12.70
2015,06,15,03,05,12.70
2015,06,15,03,06,12.70
2015,06,15,03,07,12.70
2015,06,15,03,08,12.70
2015,06,15,03,09,12.70
2015,06,15,03,10,12.70
2015,06,15,03,11,12.70
2015,06,15,03,12,12.70
2015,06,15,03,13,12.60
2015,06,15,03,14,12.60
2015,06,15,03,15,12.60
2015,06,15,03,16,12.60
2015,06,15,03,17,12.50
2015,06,15,03,18,12.50
2015,06,15,03,19,12.40
2015,06,15,03,20,12.40
2015,06,15,03,21,12.40
2015,06,15,03,22,12.40
2015,06,15,03,23,12.30
2015,06,15,03,24,12.30
2015,06,15,03,25,12.30
2015,06,15,03,26,12.30
2015,06,15,03,27,12.30
2015,06,15,03,28,12.30
2015,06,15,03,29,12.20
2015,06,15,03,30,12.20
2015,06,15,03,31,12.20
2015,06,15,03,32,12.20
2015,06,15,03,34,12.20
2015,06,15,03,35,12.20
2015,06,15,03,37,12.20
2015,06,15,03,38,12.10
2015,06,15,03,39,12.10
2015,06,15,03,40,12.10
2015,06,15,03,41,12.10
2015,06,15,03,42,12.10
2015,06,15,03,43,12.10
2015,06,15,03,44,12.10
2015,06,15,03,45,12.10
2015,06,15,03,46,12.00
2015,06,15,03,47,12.00
2015,06,15,03,48,12.00
2015,06,15,03,49,11.90
2015,06,15,03,50,11.90
2015,06,15,03,51,11.90
2015,06,15,03,52,11.90
2015,06,15,03,53,11.90
2015,06,15,03,54,11.90
2015,06,15,03,55,11.90
2015,06,15,03,56,11.80
2015,06,15,03,57,11.80
2015,06,15,03,58,11.80
2015,06,15,03,59,11.80
2015,06,15,04,00,11.80
2015,06,15,04,01,11.80
2015,06,15,04,02,11.80
2015,06,15,04,03,11.80
2015,06,15,04,05,11.80
2015,06,15,04,06,11.70
2015,06,15,04,07,11.70
2015,06,15,04,08,11.70
2015,06,15,04,09,11.70
2015,06,15,04,10,11.70
2015,06,15,04,11,11.70
2015,06,15,04,12,11.70
2015,06,15,04,13,11.70
2015,06,15,04,14,11.70
2015,06,15,04,15,11.70
2015,06,15,04,16,11.70
2015,06,15,04,17,11.70
2015,06,15,04,18,11.70
2015,06,15,04,19,11.70
2015,06,15,04,20,11.70
2015,06,15,04,21,11.70
2015,06,15,04,22,11.60
2015,06,15,04,23,11.60
2015,06,15,04,24,11.60
2015,06,15,04,25,11.60
2015,06,15,04,26,11.60
2015,06,15,04,27,11.60
2015,06,15,04,29,11.60
2015,06,15,04,30,11.50
2015,06,15,04,31,11.50
2015,06,15,04,32,11.50
2015,06,15,04,33,11.50
2015,06,15,04,34,11.50
2015,06,15,04,35,11.50
2015,06,15,04,36,11.40
2015,06,15,04,37,11.40
2015,06,15,04,38,11.40
2015,06,15,04,39,11.40
2015,06,15,04,40,11.40
2015,06,15,04,41,11.40
2015,06,15,04,42,11.30
2015,06,15,04,43,11.30
2015,06,15,04,44,11.30
2015,06,15,04,45,11.30
2015,06,15,04,46,11.30
2015,06,15,04,47,11.20
2015,06,15,04,48,11.20
2015,06,15,04,49,11.20
2015,06,15,04,51,11.20
2015,06,15,04,52,11.20
2015,06,15,04,53,11.10
2015,06,15,04,54,11.10
2015,06,15,04,55,11.10
2015,06,15,04,56,11.10
2015,06,15,04,57,11.10
2015,06,15,04,58,11.10
2015,06,15,04,59,11.10
2015,06,15,05,00,11.10
2015,06,15,05,01,11.00
2015,06,15,05,02,11.00
2015,06,15,05,03,11.00
2015,06,15,05,04,11.00
2015,06,15,05,05,11.00
2015,06,15,05,06,10.90
2015,06,15,05,07,10.90
2015,06,15,05,08,10.90
2015,06,15,05,09,10.90
2015,06,15,05,10,10.90
2015,06,15,05,11,10.90
2015,06,15,05,12,10.90
2015,06,15,05,13,10.90
2015,06,15,05,14,10.90
2015,06,15,05,15,10.90
2015,06,15,05,16,10.90
2015,06,15,05,17,10.90
2015,06,15,05,18,10.90
2015,06,15,05,19,10.90
2015,06,15,05,20,10.90
2015,06,15,05,21,10.90
2015,06,15,05,22,10.80
2015,06,15,05,23,10.80
2015,06,15,05,24,10.80
2015,06,15,05,25,10.80
2015,06,15,05,26,10.80
2015,06,15,05,27,10.80
2015,06,15,05,28,10.80
2015,06,15,05,29,10.80
2015,06,15,05,30,10.80
2015,06,15,05,31,10.80
2015,06,15,05,32,10.80
2015,06,15,05,33,10.80
2015,06,15,05,34,10.80
2015,06,15,05,35,10.80
2015,06,15,05,36,10.80
2015,06,15,05,37,10.80
2015,06,15,05,38,10.70
2015,06,15,05,39,10.80
2015,06,15,05,40,10.70
2015,06,15,05,41,10.70
2015,06,15,05,42,10.70
2015,06,15,05,43,10.70
2015,06,15,05,44,10.70
2015,06,15,05,45,10.70
2015,06,15,05,46,10.70
2015,06,15,05,47,10.70
2015,06,15,05,49,10.70
2015,06,15,05,50,10.70
2015,06,15,05,51,10.80
2015,06,15,05,52,10.70
2015,06,15,05,53,10.80
2015,06,15,05,54,10.70
2015,06,15,05,55,10.80
2015,06,15,05,56,10.80
2015,06,15,05,57,10.80
2015,06,15,05,58,10.80
2015,06,15,06,00,10.80
2015,06,15,06,01,10.80
2015,06,15,06,02,10.80
2015,06,15,06,03,10.80
2015,06,15,06,04,10.80
2015,06,15,06,05,10.80
2015,06,15,06,06,10.80
2015,06,15,06,07,10.80
2015,06,15,06,08,10.80
2015,06,15,06,11,10.80
2015,06,15,06,12,10.80
2015,06,15,06,13,10.80
2015,06,15,06,14,10.80
2015,06,15,06,15,10.80
2015,06,15,06,16,10.80
2015,06,15,06,17,10.90
2015,06,15,06,18,10.90
2015,06,15,06,19,10.90
2015,06,15,06,20,10.90
2015,06,15,06,21,10.90
2015,06,15,06,22,10.90
2015,06,15,06,23,10.90
2015,06,15,06,24,11.00
2015,06,15,06,25,11.00
2015,06,15,06,26,11.00
2015,06,15,06,27,11.10
2015,06,15,06,28,11.10
2015,06,15,06,29,11.10
2015,06,15,06,30,11.10
2015,06,15,06,31,11.10
2015,06,15,06,32,11.20
2015,06,15,06,33,11.20
2015,06,15,06,34,11.20
2015,06,15,06,35,11.20
2015,06,15,06,36,11.30
2015,06,15,06,37,11.30
2015,06,15,06,38,11.30
2015,06,15,06,39,11.30
2015,06,15,06,40,11.40
2015,06,15,06,41,11.40
2015,06,15,06,42,11.40
2015,06,15,06,43,11.40
2015,06,15,06,44,11.50
2015,06,15,06,45,11.60
2015,06,15,06,46,11.60
2015,06,15,06,47,11.60
2015,06,15,06,48,11.60
2015,06,15,06,49,11.70
2015,06,15,06,50,11.70
2015,06,15,06,51,11.80
2015,06,15,06,52,11.80
2015,06,15,06,53,11.80
2015,06,15,06,54,11.90
2015,06,15,06,55,11.90
2015,06,15,06,56,12.00
2015,06,15,06,57,12.10
2015,06,15,06,58,12.10
2015,06,15,06,59,12.20
2015,06,15,07,00,12.20
2015,06,15,07,01,12.30
2015,06,15,07,02,12.30
2015,06,15,07,03,12.40
2015,06,15,07,04,12.40
2015,06,15,07,05,12.50
2015,06,15,07,06,12.60
2015,06,15,07,07,12.60
2015,06,15,07,08,12.70
2015,06,15,07,09,12.70
2015,06,15,07,10,12.80
2015,06,15,07,11,12.80
2015,06,15,07,12,12.90
2015,06,15,07,13,13.00
2015,06,15,07,14,13.10
2015,06,15,07,15,13.20
2015,06,15,07,16,13.20
2015,06,15,07,17,13.30
2015,06,15,07,18,13.30
2015,06,15,07,19,13.40
2015,06,15,07,20,13.50
2015,06,15,07,21,13.60
2015,06,15,07,22,13.70
2015,06,15,07,23,13.70
2015,06,15,07,24,13.80
2015,06,15,07,25,13.90
2015,06,15,07,26,14.00
2015,06,15,07,27,14.10
2015,06,15,07,28,14.20
2015,06,15,07,30,14.30
2015,06,15,07,31,14.40
2015,06,15,07,32,14.50
2015,06,15,07,33,14.60
2015,06,15,07,34,14.60
2015,06,15,07,35,14.60
2015,06,15,07,36,14.60
2015,06,15,07,37,14.70
2015,06,15,07,38,14.70
2015,06,15,07,39,14.70
2015,06,15,07,40,14.70
2015,06,15,07,41,14.70
2015,06,15,07,42,14.80
2015,06,15,07,43,14.80
2015,06,15,07,44,14.90
2015,06,15,07,45,14.90
2015,06,15,07,46,15.10
2015,06,15,07,47,15.10
2015,06,15,07,48,15.20
2015,06,15,07,49,15.20
2015,06,15,07,50,15.30
2015,06,15,07,51,15.40
2015,06,15,07,52,15.40
2015,06,15,07,53,15.60
2015,06,15,07,54,15.60
2015,06,15,07,55,15.70
2015,06,15,07,56,15.80
2015,06,15,07,59,16.00
2015,06,15,08,00,16.10
2015,06,15,08,01,16.10
2015,06,15,08,02,16.10
2015,06,15,08,03,16.20
2015,06,15,08,04,16.30
2015,06,15,08,05,16.30
2015,06,15,08,06,16.40
2015,06,15,08,07,16.40
2015,06,15,08,08,16.50
2015,06,15,08,09,16.60
2015,06,15,08,10,16.60
2015,06,15,08,11,16.70
2015,06,15,08,12,16.70
2015,06,15,08,13,16.80
2015,06,15,08,14,16.80
2015,06,15,08,15,16.80
2015,06,15,08,16,16.90
2015,06,15,08,17,16.90
2015,06,15,08,18,16.90
2015,06,15,08,19,17.00
2015,06,15,08,20,17.10
2015,06,15,08,21,17.10
2015,06,15,08,22,17.20
2015,06,15,08,23,17.20
2015,06,15,08,24,17.20
2015,06,15,08,26,17.30
2015,06,15,08,27,17.30
2015,06,15,08,28,17.40
2015,06,15,08,29,17.40
2015,06,15,08,30,17.50
2015,06,15,08,31,17.60
2015,06,15,08,32,17.60
2015,06,15,08,33,17.70
2015,06,15,08,34,17.70
2015,06,15,08,35,17.70
2015,06,15,08,36,17.60
2015,06,15,08,37,17.60
2015,06,15,08,38,17.60
2015,06,15,08,39,17.60
2015,06,15,08,40,17.60
2015,06,15,08,41,17.60
2015,06,15,08,42,17.60
2015,06,15,08,43,17.60
2015,06,15,08,44,17.70
2015,06,15,08,45,17.70
2015,06,15,08,46,17.80
2015,06,15,08,47,17.80
2015,06,15,08,48,17.80
2015,06,15,08,49,17.90
2015,06,15,08,50,17.90
2015,06,15,08,51,17.90
2015,06,15,08,52,17.90
2015,06,15,08,53,18.00
2015,06,15,08,55,18.10
2015,06,15,08,56,18.20
2015,06,15,08,57,18.30
2015,06,15,08,58,18.40
2015,06,15,08,59,18.60
2015,06,15,09,00,18.60
2015,06,15,09,01,18.70
2015,06,15,09,02,18.80
2015,06,15,09,03,18.80
2015,06,15,09,04,18.90
2015,06,15,09,05,19.10
2015,06,15,09,06,19.20
2015,06,15,09,07,19.20
2015,06,15,09,08,19.30
2015,06,15,09,09,19.40
2015,06,15,09,10,19.50
2015,06,15,09,11,19.60
2015,06,15,09,12,19.60
2015,06,15,09,13,19.70
2015,06,15,09,14,19.70
2015,06,15,09,15,19.70
2015,06,15,09,16,19.80
2015,06,15,09,17,19.80
2015,06,15,09,18,19.90
2015,06,15,09,19,19.90
2015,06,15,09,20,20.00
2015,06,15,09,21,20.10
2015,06,15,09,22,20.10
2015,06,15,09,23,20.10
2015,06,15,09,24,20.20
2015,06,15,09,25,20.20
2015,06,15,09,26,20.20
2015,06,15,09,27,20.20
2015,06,15,09,28,20.20
2015,06,15,09,29,20.30
2015,06,15,09,30,20.30
2015,06,15,09,31,20.30
2015,06,15,09,32,20.40
2015,06,15,09,33,20.40
2015,06,15,09,34,20.50
2015,06,15,09,35,20.60
2015,06,15,09,36,20.60
2015,06,15,09,37,20.70
2015,06,15,09,38,20.70
2015,06,15,09,39,20.70
2015,06,15,09,40,20.80
2015,06,15,09,41,20.80
2015,06,15,09,42,20.80
2015,06,15,09,43,20.70
2015,06,15,09,44,20.70
2015,06,15,09,45,20.60
2015,06,15,09,46,20.60
2015,06,15,09,47,20.70
2015,06,15,09,48,20.70
2015,06,15,09,49,20.70
2015,06,15,09,50,20.80
2015,06,15,09,51,20.80
2015,06,15,09,52,20.90
2015,06,15,09,53,21.00
2015,06,15,09,54,21.00
2015,06,15,09,55,21.10
2015,06,15,09,56,21.10
2015,06,15,09,57,21.10
2015,06,15,09,58,21.10
2015,06,15,09,59,21.10
2015,06,15,10,00,21.10
2015,06,15,10,01,21.10
2015,06,15,10,02,21.10
2015,06,15,10,03,21.10
2015,06,15,10,04,21.10
2015,06,15,10,05,21.10
2015,06,15,10,06,21.20
2015,06,15,10,07,21.20
2015,06,15,10,08,21.30
2015,06,15,10,09,21.40
2015,06,15,10,10,21.50
2015,06,15,10,11,21.60
2015,06,15,10,12,21.70
2015,06,15,10,13,21.80
2015,06,15,10,14,21.90
2015,06,15,10,15,21.90
2015,06,15,10,16,22.10
2015,06,15,10,17,22.20
2015,06,15,10,18,22.20
2015,06,15,10,19,22.20
2015,06,15,10,20,22.20
2015,06,15,10,21,22.20
2015,06,15,10,22,22.10
2015,06,15,10,23,22.10
2015,06,15,10,24,22.10
2015,06,15,10,25,22.10
2015,06,15,10,26,22.10
2015,06,15,10,27,22.10
2015,06,15,10,28,22.20
2015,06,15,10,29,22.20
2015,06,15,10,30,22.20
2015,06,15,10,31,22.20
2015,06,15,10,32,22.20
2015,06,15,10,33,22.20
2015,06,15,10,34,22.20
2015,06,15,10,35,22.30
2015,06,15,10,36,22.30
2015,06,15,10,37,22.30
2015,06,15,10,38,22.30
2015,06,15,10,39,22.30
2015,06,15,10,40,22.30
2015,06,15,10,41,22.40
2015,06,15,10,42,22.40
2015,06,15,10,43,22.40
2015,06,15,10,44,22.50
2015,06,15,10,45,22.60
2015,06,15,10,46,22.60
2015,06,15,10,47,22.70
2015,06,15,10,48,22.70
2015,06,15,10,49,22.80
2015,06,15,10,50,22.80
2015,06,15,10,51,22.80
2015,06,15,10,52,22.80
2015,06,15,10,53,22.80
2015,06,15,10,54,22.90
2015,06,15,10,56,23.00
2015,06,15,10,57,23.00
2015,06,15,10,58,23.10
2015,06,15,10,59,23.10
2015,06,15,11,00,23.10
2015,06,15,11,03,23.30
2015,06,15,11,05,23.40
2015,06,15,11,06,23.60
2015,06,15,11,07,23.70
2015,06,15,11,10,23.80
2015,06,15,11,11,23.80
2015,06,15,11,12,23.80
2015,06,15,11,13,23.90
2015,06,15,11,14,23.90
2015,06,15,11,15,23.90
2015,06,15,11,16,24.00
2015,06,15,11,17,24.10
2015,06,15,11,18,24.20
2015,06,15,11,20,24.40
2015,06,15,11,21,24.60
2015,06,15,11,22,24.70
2015,06,15,11,23,24.80
2015,06,15,11,24,24.90
2015,06,15,11,25,24.90
2015,06,15,11,26,25.00
2015,06,15,11,27,25.10
2015,06,15,11,28,25.10
2015,06,15,11,29,25.10
2015,06,15,11,30,25.10
2015,06,15,11,31,25.10
2015,06,15,11,32,25.10
2015,06,15,11,33,25.10
2015,06,15,11,34,25.10
2015,06,15,11,35,25.20
2015,06,15,11,36,25.20
2015,06,15,11,37,25.20
2015,06,15,11,38,25.10
2015,06,15,11,39,25.10
2015,06,15,11,40,25.10
2015,06,15,11,41,25.20
2015,06,15,11,42,25.20
2015,06,15,11,45,25.40
2015,06,15,11,46,25.40
2015,06,15,11,47,25.40
2015,06,15,11,48,25.50
2015,06,15,11,49,25.50
2015,06,15,11,50,25.40
2015,06,15,11,51,25.40
2015,06,15,11,52,25.30
2015,06,15,11,53,25.30
2015,06,15,11,54,25.20
2015,06,15,11,55,25.20
2015,06,15,11,56,25.20
2015,06,15,11,57,25.20
2015,06,15,11,58,25.20
2015,06,15,11,59,25.30
2015,06,15,12,00,25.40
2015,06,15,12,01,25.50
2015,06,15,12,02,25.60
2015,06,15,12,03,25.70
2015,06,15,12,04,25.80
2015,06,15,12,05,25.90
2015,06,15,12,06,25.90
2015,06,15,12,07,26.10
2015,06,15,12,08,26.10
2015,06,15,12,09,26.20
2015,06,15,12,10,26.20
2015,06,15,12,11,26.20
2015,06,15,12,12,26.20
2015,06,15,12,13,26.10
2015,06,15,12,14,26.10
2015,06,15,12,15,26.00
2015,06,15,12,16,25.90
2015,06,15,12,17,25.90
2015,06,15,12,18,25.90
2015,06,15,12,19,25.90
2015,06,15,12,20,26.10
2015,06,15,12,21,26.10
2015,06,15,12,22,26.20
2015,06,15,12,23,26.30
2015,06,15,12,24,26.40
2015,06,15,12,25,26.60
2015,06,15,12,26,26.70
2015,06,15,12,27,26.80
2015,06,15,12,28,26.80
2015,06,15,12,29,27.00
2015,06,15,12,30,27.10
2015,06,15,12,31,27.20
2015,06,15,12,32,27.30
2015,06,15,12,33,27.40
2015,06,15,12,34,27.40
2015,06,15,12,35,27.40
2015,06,15,12,36,27.60
2015,06,15,12,37,27.60
2015,06,15,12,38,27.70
2015,06,15,12,39,27.70
2015,06,15,12,40,27.70
2015,06,15,12,41,27.80
2015,06,15,12,42,27.80
2015,06,15,12,43,27.90
2015,06,15,12,44,27.90
2015,06,15,12,45,28.00
2015,06,15,12,46,28.10
2015,06,15,12,47,28.10
2015,06,15,12,48,28.00
2015,06,15,12,49,27.90
2015,06,15,12,50,27.90
2015,06,15,12,51,27.90
2015,06,15,12,52,28.00
2015,06,15,12,53,28.10
2015,06,15,12,54,28.10
2015,06,15,12,55,28.20
2015,06,15,12,56,28.20
2015,06,15,12,57,28.20
2015,06,15,12,58,28.20
2015,06,15,12,59,28.20
2015,06,15,13,00,28.20
2015,06,15,13,01,28.20
2015,06,15,13,02,28.20
2015,06,15,13,03,28.20
2015,06,15,13,04,28.30
2015,06,15,13,05,28.30
2015,06,15,13,06,28.30
2015,06,15,13,07,28.30
2015,06,15,13,08,28.20
2015,06,15,13,09,28.20
2015,06,15,13,10,28.20
2015,06,15,13,11,28.20
2015,06,15,13,12,28.10
2015,06,15,13,13,28.10
2015,06,15,13,14,28.00
2015,06,15,13,15,27.90
2015,06,15,13,16,27.90
2015,06,15,13,17,27.90
2015,06,15,13,18,27.90
2015,06,15,13,19,27.90
2015,06,15,13,20,28.00
2015,06,15,13,21,28.10
2015,06,15,13,22,28.10
2015,06,15,13,23,28.10
2015,06,15,13,24,28.20
2015,06,15,13,25,28.30
2015,06,15,13,26,28.30
2015,06,15,13,27,28.40
2015,06,15,13,28,28.40
2015,06,15,13,29,28.40
2015,06,15,13,30,28.40
2015,06,15,13,31,28.40
2015,06,15,13,32,28.40
2015,06,15,13,33,28.40
2015,06,15,13,34,28.50
2015,06,15,13,35,28.60
2015,06,15,13,36,28.60
2015,06,15,13,37,28.60
2015,06,15,13,38,28.50
2015,06,15,13,39,28.50
2015,06,15,13,40,28.50
2015,06,15,13,41,28.60
2015,06,15,13,42,28.60
2015,06,15,13,43,28.70
2015,06,15,13,44,28.80
2015,06,15,13,45,28.90
2015,06,15,13,46,28.90
2015,06,15,13,47,28.90
2015,06,15,13,48,28.90
2015,06,15,13,49,28.90
2015,06,15,13,50,28.80
2015,06,15,13,51,28.80
2015,06,15,13,52,28.80
2015,06,15,13,53,28.70
2015,06,15,13,54,28.70
2015,06,15,13,55,28.70
2015,06,15,13,56,28.80
2015,06,15,13,57,28.80
2015,06,15,13,58,28.80
2015,06,15,13,59,28.80
2015,06,15,14,00,28.90
2015,06,15,14,01,28.90
2015,06,15,14,02,28.90
2015,06,15,14,03,28.90
2015,06,15,14,04,28.90
2015,06,15,14,05,28.90
2015,06,15,14,06,28.90
2015,06,15,14,07,28.90
2015,06,15,14,08,28.90
2015,06,15,14,09,28.90
2015,06,15,14,10,28.90
2015,06,15,14,11,28.90
2015,06,15,14,12,29.00
2015,06,15,14,13,29.10
2015,06,15,14,14,29.10
2015,06,15,14,15,29.10
2015,06,15,14,16,29.10
2015,06,15,14,19,28.90
2015,06,15,14,20,29.00
2015,06,15,14,21,29.00
2015,06,15,14,22,29.10
2015,06,15,14,23,29.10
2015,06,15,14,24,29.20
2015,06,15,14,27,29.30
2015,06,15,14,28,29.30
2015,06,15,14,29,29.30
2015,06,15,14,30,29.30
2015,06,15,14,31,29.30
2015,06,15,14,32,29.30
2015,06,15,14,33,29.30
2015,06,15,14,34,29.20
2015,06,15,14,35,29.20
2015,06,15,14,36,29.20
2015,06,15,14,37,29.20
2015,06,15,14,38,29.20
2015,06,15,14,39,29.30
2015,06,15,14,40,29.30
2015,06,15,14,41,29.40
2015,06,15,14,42,29.40
2015,06,15,14,43,29.40
2015,06,15,14,44,29.40
2015,06,15,14,45,29.40
2015,06,15,14,46,29.40
2015,06,15,14,47,29.40
2015,06,15,14,48,29.40
2015,06,15,14,49,29.40
2015,06,15,14,50,29.30
2015,06,15,14,51,29.30
2015,06,15,14,52,29.30
2015,06,15,14,53,29.30
2015,06,15,14,54,29.20
2015,06,15,14,55,29.20
2015,06,15,14,56,29.20
2015,06,15,14,57,29.20
2015,06,15,14,58,29.20
2015,06,15,14,59,29.20
2015,06,15,15,00,29.20
2015,06,15,15,01,29.20
2015,06,15,15,02,29.20
2015,06,15,15,03,29.30
2015,06,15,15,04,29.30
2015,06,15,15,05,29.30
2015,06,15,15,06,29.40
2015,06,15,15,07,29.50
2015,06,15,15,08,29.60
2015,06,15,15,09,29.70
2015,06,15,15,10,29.70
2015,06,15,15,11,29.70
2015,06,15,15,12,29.60
2015,06,15,15,13,29.60
2015,06,15,15,14,29.60
2015,06,15,15,16,29.60
2015,06,15,15,17,29.60
2015,06,15,15,18,29.70
2015,06,15,15,19,29.70
2015,06,15,15,20,29.80
2015,06,15,15,21,29.80
2015,06,15,15,22,29.80
2015,06,15,15,23,29.80
2015,06,15,15,24,29.80
2015,06,15,15,25,29.70
2015,06,15,15,27,29.70
2015,06,15,15,28,29.70
2015,06,15,15,29,29.70
2015,06,15,15,30,29.70
2015,06,15,15,31,29.60
2015,06,15,15,32,29.60
2015,06,15,15,33,29.50
2015,06,15,15,34,29.40
2015,06,15,15,35,29.50
2015,06,15,15,36,29.50
2015,06,15,15,37,29.60
2015,06,15,15,38,29.60
2015,06,15,15,39,29.60
2015,06,15,15,40,29.60
2015,06,15,15,41,29.60
2015,06,15,15,42,29.60
2015,06,15,15,43,29.70
2015,06,15,15,44,29.70
2015,06,15,15,45,29.80
2015,06,15,15,46,29.70
2015,06,15,15,47,29.70
2015,06,15,15,48,29.70
2015,06,15,15,49,29.70
2015,06,15,15,51,29.70
2015,06,15,15,52,29.70
2015,06,15,15,53,29.70
2015,06,15,15,54,29.60
2015,06,15,15,55,29.60
2015,06,15,15,56,29.60
2015,06,15,15,57,29.60
2015,06,15,15,59,29.50
2015,06,15,16,00,29.50
2015,06,15,16,01,29.50
2015,06,15,16,02,29.60
2015,06,15,16,03,29.60
2015,06,15,16,04,29.60
2015,06,15,16,05,29.70
2015,06,15,16,06,29.70
2015,06,15,16,07,29.70
2015,06,15,16,08,29.70
2015,06,15,16,09,29.70
2015,06,15,16,10,29.70
2015,06,15,16,11,29.70
2015,06,15,16,12,29.70
2015,06,15,16,13,29.70
2015,06,15,16,14,29.70
2015,06,15,16,15,29.70
2015,06,15,16,16,29.70
2015,06,15,16,17,29.70
2015,06,15,16,18,29.80
2015,06,15,16,19,29.80
2015,06,15,16,20,29.80
2015,06,15,16,21,29.80
2015,06,15,16,22,29.80
2015,06,15,16,23,29.90
2015,06,15,16,24,29.90
2015,06,15,16,25,30.00
2015,06,15,16,26,30.00
2015,06,15,16,27,30.00
2015,06,15,16,28,30.00
2015,06,15,16,29,29.90
2015,06,15,16,30,29.90
2015,06,15,16,31,29.80
2015,06,15,16,32,29.80
2015,06,15,16,35,29.70
2015,06,15,16,36,29.70
2015,06,15,16,37,29.70
2015,06,15,16,38,29.70
2015,06,15,16,39,29.60
2015,06,15,16,40,29.60
2015,06,15,16,41,29.60
2015,06,15,16,42,29.70
2015,06,15,16,43,29.70
2015,06,15,16,44,29.70
2015,06,15,16,45,29.70
2015,06,15,16,46,29.60
2015,06,15,16,47,29.60
2015,06,15,16,48,29.60
2015,06,15,16,49,29.60
2015,06,15,16,50,29.60
2015,06,15,16,51,29.60
2015,06,15,16,52,29.60
2015,06,15,16,53,29.60
2015,06,15,16,54,29.60
2015,06,15,16,56,29.60
2015,06,15,16,57,29.60
2015,06,15,16,58,29.60
2015,06,15,16,59,29.60
2015,06,15,17,00,29.70
2015,06,15,17,01,29.70
2015,06,15,17,02,29.70
2015,06,15,17,03,29.70
2015,06,15,17,04,29.70
2015,06,15,17,05,29.70
2015,06,15,17,06,29.70
2015,06,15,17,07,29.70
2015,06,15,17,08,29.70
2015,06,15,17,09,29.60
2015,06,15,17,10,29.60
2015,06,15,17,11,29.60
2015,06,15,17,12,29.70
2015,06,15,17,13,29.70
2015,06,15,17,14,29.70
2015,06,15,17,15,29.60
2015,06,15,17,16,29.70
2015,06,15,17,17,29.70
2015,06,15,17,18,29.70
2015,06,15,17,19,29.70
2015,06,15,17,20,29.70
2015,06,15,17,21,29.60
2015,06,15,17,22,29.60
2015,06,15,17,23,29.60
2015,06,15,17,24,29.70
2015,06,15,17,25,29.70
2015,06,15,17,26,29.70
2015,06,15,17,27,29.70
2015,06,15,17,28,29.70
2015,06,15,17,29,29.70
2015,06,15,17,30,29.60
2015,06,15,17,32,29.60
2015,06,15,17,33,29.60
2015,06,15,17,34,29.60
2015,06,15,17,35,29.60
2015,06,15,17,36,29.60
2015,06,15,17,37,29.60
2015,06,15,17,38,29.50
2015,06,15,17,39,29.50
2015,06,15,17,40,29.40
2015,06,15,17,41,29.40
2015,06,15,17,42,29.40
2015,06,15,17,43,29.40
2015,06,15,17,44,29.30
2015,06,15,17,45,29.30
2015,06,15,17,46,29.30
2015,06,15,17,47,29.30
2015,06,15,17,48,29.30
2015,06,15,17,49,29.30
2015,06,15,17,50,29.30
2015,06,15,17,51,29.20
2015,06,15,17,52,29.10
2015,06,15,17,53,29.10
2015,06,15,17,54,29.10
2015,06,15,17,55,29.00
2015,06,15,17,56,28.90
2015,06,15,17,57,28.90
2015,06,15,17,58,28.90
2015,06,15,17,59,28.90
2015,06,15,18,00,28.80
2015,06,15,18,01,28.80
2015,06,15,18,03,28.70
2015,06,15,18,04,28.60
2015,06,15,18,05,28.40
2015,06,15,18,06,28.40
2015,06,15,18,07,28.40
2015,06,15,18,08,28.40
2015,06,15,18,09,28.40
2015,06,15,18,10,28.40
2015,06,15,18,11,28.40
2015,06,15,18,12,28.30
2015,06,15,18,13,28.20
2015,06,15,18,15,28.00
2015,06,15,18,16,27.90
2015,06,15,18,17,27.80
2015,06,15,18,18,27.80
2015,06,15,18,19,27.80
2015,06,15,18,20,27.70